Regional Weather Roundup
Issued by NWS

Current Version | Previous Version | Text Only | Print | Product List | Glossary On
Versions: 1 2 3 4 5 6 7 8 9 10 11 12 13 14 15 16 17 18 19 20 21 22 23 24 25 26 27 28 29 30 31 32 33 34 35 36 37 38 39 40 41 42 43 44 45 46 47 48 49 50
821
ASUS42 KTBW 131116
RWRFL
FLORIDA REGIONAL WEATHER ROUNDUP
NATIONAL WEATHER SERVICE TAMPA BAY RUSKIN FL
600 AM EST SAT FEB 13 2016

NOTE: "FAIR" INDICATES FEW OR NO CLOUDS BELOW 12,000 FEET WITH NO
SIGNIFICANT WEATHER AND/OR OBSTRUCTIONS TO VISIBILITY.


FLZ001>010-012>015-112-114-115-131200-
PANHANDLE FLORIDA

CITY           SKY/WX    TMP DP  RH WIND       PRES   REMARKS
PENSACOLA      CLEAR     47  28  47 N14       30.31R WCI  41
MILTON NAS     CLEAR     44  28  53 N6        30.32  WCI  41
CRESTVIEW      PTCLDY    45  30  55 N8        30.32R WCI  41
DUKE FIELD     FAIR      45  31  56 N13       30.29R WCI  39
VALPARAISO     CLEAR     47  30  51 N17       30.28R WCI  41
MARY ESTHER    CLEAR     47  28  48 N10       30.28R WCI  42
TRI COUNTY     FAIR      46  31  55 N9        30.30R WCI  41
PANAMA CITY    FAIR      48  34  58 NW10      30.26R WCI  43
TYNDALL AFB    CLEAR     50  34  53 N10       30.26R
APALACHICOLA   CLEAR     50  39  66 N9        30.24R

STATION/POSITION SKY/WX   TEMP    WIND        PRES    WAVE   SWELL
                          AIR SEA DIR/SP/G            HT/PER HT/PER
                          (F)     (DEG/KT/KT) (MB)    (FT/S) (FT/S)
30.1N   87.6W              54 65   10/ 21/ 27 1024.8R   4/ 4
28.8N   86.0W              63 68  360/ 21/ 25 1023.7R   5/ 6
PANAMA CITY BEAC           51 61  360/ 10/ 14 1024.5R
CAPE SAN BLAS    NOT AVBL
TOWER C          NOT AVBL
28.5N   84.5W              64 67  360/ 17/ 21 1022.6R   5/ 6

$$
FLZ011-016>038-118-127-128-134-139-239-131200-
NORTH FLORIDA

CITY           SKY/WX    TMP DP  RH WIND       PRES   REMARKS
MARIANNA       PTCLDY    47  33  58 N10G18    30.27R WCI  42
TALLAHASSEE    PTCLDY    47  37  68 NW5       30.24R WCI  45
PERRY          PTCLDY    49  42  76 NW5       30.23R
LIVE OAK         N/A     50  45  81 CALM      30.24R
CROSS CITY       N/A     52  47  83 NW5       30.20R
LAKE CITY      FAIR      48  45  87 N5        30.20R
GAINESVILLE    PTCLDY    52  50  93 NW6       30.19R
WILLISTON      FAIR      55  55 100 NW3       30.20R
KEYSTONE HEIGH FAIR      52  52 100 CALM      30.19R
PALATKA        MOCLDY    54  54 100 NW3       30.18R FOG
MAYPORT NAS    PTCLDY    53  47  79 NW5       30.19R
JACKSONVILLE   PTCLDY    50  37  61 NW6       30.19R
JAX NAS        PTCLDY    56  39  53 N14       30.19R
JAX CRAIG      PTCLDY    52  44  74 N8        30.19R
JAX CECIL      CLEAR     48  46  93 NW3       30.19R
FERNANDINA BEA FAIR      52  39  62 NW6       30.18R
ST AUGUSTINE   PTCLDY    54  52  93 NW6       30.19R
PALM COAST     PTCLDY    54  54 100 W5        30.17R

STATION/POSITION SKY/WX   TEMP    WIND        PRES    WAVE   SWELL
                          AIR SEA DIR/SP/G            HT/PER HT/PER
                          (F)     (DEG/KT/KT) (MB)    (FT/S) (FT/S)
SHELL POINT                52     330/  7/  9 1021.6
KEATON BEACH               52     340/  3/  6 1023.0R
CEDAR KEY                  57     350/  5/  8 1023.0R
FERNANDINA                 53 56  320/  5/  8 1021.4R
30.7N   81.3W                 55                N/A     2/ 2
MAYPORT                    54 56  330/  4/  6 1021.1R
31.4N   80.9W              51 52  330/ 14/ 17 1021.9R   2/ 6   2/ 6
ST AUGUSTINE               54 57  310/  7/  9 1022.5R

$$
FLZ040-043>046-052-053-057-058-063-144-131200-
INTERIOR CENTRAL FLORIDA

CITY           SKY/WX    TMP DP  RH WIND       PRES   REMARKS
OCALA          CLEAR     55  52  88 NW5       30.19R
THE VILLAGES     N/A     57  57 100 W5        30.09R
LEESBURG       CLEAR     58  55  90 NW5       30.19R
SANFORD        CLEAR     54  53  97 W7        30.17R
ORLANDO EXEC   CLEAR     59  56  89 NW6       30.18R
ORLANDO INTL   PTCLDY    59  56  89 W9        30.18R
WINTER HAVEN   PTCLDY    57  56  96 W7        30.19R
LAKELAND       FOG       50  50 100 CALM      30.19R VSB 1/4
BARTOW         FAIR      46  46 100 CALM      30.20R
OKEECHOBEE     CLEAR     48  48 100 CALM      30.20R

$$
FLZ041-047-054-059-064-141-147-131200-
EAST CENTRAL FLORIDA

CITY           SKY/WX    TMP DP  RH WIND       PRES   REMARKS
DAYTONA BEACH  PTCLDY    56  55  97 W5        30.17R
DELAND           N/A     55  55 100 CALM      30.19R
JFK SPACE CTR  CLEAR     56  53  92 W6        30.15R
CAPE CANAVERAL CLEAR     57  55  94 W9        30.15R
PATRICK AFB    CLEAR     57  56  95 W13       30.16R
MELBOURNE      CLEAR     53  52  96 W7        30.17R
VERO BEACH     CLEAR     50  48  93 W6        30.18R
FT PIERCE      PTCLDY    50  50 100 W5        30.18R
STUART           N/A     55  50  82 W6        30.20R

STATION/POSITION SKY/WX   TEMP    WIND        PRES    WAVE   SWELL
                          AIR SEA DIR/SP/G            HT/PER HT/PER
                          (F)     (DEG/KT/KT) (MB)    (FT/S) (FT/S)
28.5N   80.2W              63 72  290/ 21/ 25 1020.2R
28.9N   78.5W              69 72              1019.1R
TRIDENT PIER               57 63  250/  7/  9 1020.6R
28.4N   80.5W                 63                N/A     1/ 2
27.5N   80.2W                 71                N/A     1/ 2

$$
FLZ050-056-061-142-242-148-248-149-249-151-251-155-255-
160-260-131200-
WEST CENTRAL FLORIDA

CITY           SKY/WX    TMP DP  RH WIND       PRES   REMARKS
CRYSTAL RIVER  FAIR      55  55 100 NW3       30.20R
INVERNESS      FAIR      55  55 100 CALM      30.20R
BROOKSVILLE    MOCLDY    61  58  90 NW12      30.20R
ZEPHYRHILLS    FOG       45  44  99 CALM      30.20R VSB 1/4
CLEARWATER AIR MOCLDY    61  59  94 NW5       30.19R
ST PETE CLEARW PTCLDY    61  57  87 W6        30.19R
TAMPA INTL     MOCLDY    61  58  90 W5        30.19R
TAMPA EXEC     FOG       52  50  93 CALM      30.20R VSB 1/2
PLANT CITY     MOCLDY    52  52 100 CALM      30.21R FOG
MACDILL AFB    PTCLDY    58  58 100 VRB2      30.18R
PETER O KNIGHT PTCLDY    63  61  94 CALM      30.19R
ST PETERSBURG  CLEAR     62  58  86 NW6       30.17R
SARASOTA       CLEAR     57  57 100 NW6       30.18R
VENICE         FAIR      61  59  94 NW6       30.21R

STATION/POSITION SKY/WX   TEMP    WIND        PRES    WAVE   SWELL
                          AIR SEA DIR/SP/G            HT/PER HT/PER
                          (F)     (DEG/KT/KT) (MB)    (FT/S) (FT/S)
CEDAR KEY                  57     350/  5/  8 1023.0R
28.5N   84.5W              64 67  360/ 17/ 21 1022.6R   5/ 6
27.3N   84.2W                 71                N/A     4/ 6
CLEARWATER BEACH           60 58  260/  7/  8 1021.9R
MIDDLE TAMPA BAY           61     310/  6/  7 1022.2F
VENICE                     63 62  310/  7/  7 1022.4R

$$
FLZ066-069-070-075>078-162-262-165-265-131200-
SOUTHWEST FLORIDA AND KEYS

CITY           SKY/WX    TMP DP  RH WIND       PRES   REMARKS
PUNTA GORDA    CLEAR     50  50 100 CALM      30.22R
FT MYERS       CLEAR     52  50  93 CALM      30.20R
SOUTHWEST INTL PTCLDY    54  51  90 CALM      30.21R
NAPLES         CLEAR     52  50  93 CALM      30.21R
MARCO ISLAND   PTCLDY    48  43  81 CALM      30.20R
MARATHON       CLEAR     62  55  77 N12       30.20R
KEY WEST NAS   CLEAR     63  55  75 N9        30.20R
KEY WEST INTL  CLEAR     63  57  81 N8        30.21R

STATION/POSITION SKY/WX   TEMP    WIND        PRES    WAVE   SWELL
                          AIR SEA DIR/SP/G            HT/PER HT/PER
                          (F)     (DEG/KT/KT) (MB)    (FT/S) (FT/S)
VENICE                     63 62  310/  7/  7 1022.4R
NAPLES                        64              1022.3R
26.0N   85.6W              72 79  330/ 14/ 16 1023.4R   2/ 7   2/ 7
DRY TORTUGAS     NOT AVBL
SAND KEY                   65      30/ 16/ 17 1022.8R
LONG KEY                   63 64   10/ 12/ 14 1023.5R
MOLASSES REEF              64 73  360/ 16/ 18 1022.2R

$$
FLZ067-068-071>074-168-172>174-131200-
SOUTHEAST FLORIDA

CITY           SKY/WX    TMP DP  RH WIND       PRES   REMARKS
W PALM BEACH   CLEAR     54  52  93 W5        30.20R
FT LAUDER-EXEC CLEAR     52  49  89 CALM      30.20R
FT LAUDERDALE  CLEAR     56  52  86 CALM      30.20R
POMPANO BEACH  CLEAR     52  52 100 W5        30.20R
PEMBROKE PINES CLEAR     53  47  79 CALM      30.22R
OPA LOCKA      CLEAR     54  51  90 CALM      30.22R
MIAMI          CLEAR     54  51  90 CALM      30.21R
WEST KENDALL   CLEAR     49  49 100 CALM      30.22R
HOMESTEAD      CLEAR     53  49  87 NW6       30.20R

STATION/POSITION SKY/WX   TEMP    WIND        PRES    WAVE   SWELL
                          AIR SEA DIR/SP/G            HT/PER HT/PER
                          (F)     (DEG/KT/KT) (MB)    (FT/S) (FT/S)
PORT EVERGLADES            59     280/  5/  7 1022.7R
VIRGINIA KEY               61 68  360/  3/  5 1022.3R
LAKE WORTH                 56 75  260/  3/  5 1021.7R
SETTLEMENT POINT           70     310/ 15/ 16 1022.3R

$$





USA.gov is the U.S. government's official web portal to all federal, state and local government web resources and services.